Date,TemperatureHighF,TemperatureAvgF,TemperatureLowF,DewpointHighF,DewpointAvgF,DewpointLowF,HumidityHigh,HumidityAvg,HumidityLow,PressureMaxIn,PressureMinIn,WindSpeedMaxMPH,WindSpeedAvgMPH,GustSpeedMaxMPH,PrecipitationSumIn
2013-1-1,20,16,12,-100,-100,-100,0,0,100,0.00,40.00,0,-999,0,0.00
2013-1-2,23,18,14,-100,-100,-100,0,0,100,0.00,40.00,0,-999,0,0.00
2013-1-3,40,33,26,-100,-100,-100,0,0,100,0.00,40.00,0,-999,0,0.00
2013-1-4,33,27,22,-100,-100,-100,0,0,100,0.00,40.00,0,-999,0,0.00
2013-1-5,27,23,19,-100,-100,-100,0,0,100,0.00,40.00,0,-999,0,0.00
2013-1-6,29,24,21,-100,-100,-100,0,0,100,0.00,40.00,0,-999,0,0.00
2013-1-7,26,22,20,-100,-100,-100,0,0,100,0.00,40.00,0,-999,0,0.00
2013-1-8,27,24,22,-100,-100,-100,0,0,100,0.00,40.00,0,-999,0,0.00
2013-1-9,30,28,25,-100,-100,-100,0,0,100,0.00,40.00,0,-999,0,0.00
2013-1-10,30,16,-4,-100,-100,-100,0,0,100,0.00,40.00,0,-999,0,0.03
2013-1-11,-2,-6,-10,-100,-100,-100,0,0,100,0.00,40.00,0,-999,0,0.01
2013-1-12,6,0,-3,-100,-100,-100,0,0,100,0.00,40.00,0,-999,0,0.01
2013-1-13,3,0,-4,-100,-100,-100,0,0,100,0.00,40.00,0,-999,0,0.00
2013-1-14,11,4,-3,-100,-100,-100,0,0,100,0.00,40.00,0,-999,0,0.00
2013-1-15,19,16,11,-100,-100,-100,0,0,100,0.00,40.00,0,-999,0,0.01
2013-1-16,27,23,19,-100,-100,-100,0,0,100,0.00,40.00,0,-999,0,0.00
2013-1-17,33,30,25,-100,-100,-100,0,0,100,0.00,40.00,0,-999,0,0.00
2013-1-18,35,31,27,-100,-100,-100,0,0,100,0.00,40.00,0,-999,0,0.00
2013-1-19,32,30,28,-100,-100,-100,0,0,100,0.00,40.00,0,-999,0,0.00
2013-1-20,30,26,20,-100,-100,-100,0,0,100,0.00,40.00,0,-999,0,0.00
2013-1-21,35,32,28,-100,-100,-100,0,0,100,0.00,40.00,0,-999,0,0.00
2013-1-22,40,34,30,-100,-100,-100,0,0,100,0.00,40.00,0,-999,0,0.00
2013-1-23,40,38,34,-100,-100,-100,0,0,100,0.00,40.00,0,-999,0,0.00
2013-1-27,19,16,14,-100,-100,-100,0,0,100,0.00,40.00,0,-999,0,0.00
2013-1-29,12,10,9,-100,-100,-100,0,0,100,0.00,40.00,0,-999,0,0.00
2013-1-30,20,16,14,-100,-100,-100,0,0,100,0.00,40.00,0,-999,0,0.01
2013-1-31,27,26,26,-100,-100,-100,0,0,100,0.00,40.00,0,-999,0,0.00
2013-2-2,27,27,26,-100,-100,-100,0,0,100,0.00,40.00,0,-999,0,0.00
2013-2-3,30,29,28,-100,-100,-100,0,0,100,0.00,40.00,0,-999,0,0.00
2013-2-4,27,26,25,-100,-100,-100,0,0,100,0.00,40.00,0,-999,0,0.00
2013-2-5,29,27,25,-100,-100,-100,0,0,100,0.00,40.00,0,-999,0,0.00
2013-2-6,26,26,26,-100,-100,-100,0,0,100,0.00,40.00,0,-999,0,0.00
2013-2-7,26,23,21,-100,-100,-100,0,0,100,0.00,40.00,0,-999,0,0.00
2013-2-8,25,21,19,-100,-100,-100,0,0,100,0.00,40.00,0,-999,0,0.00
2013-2-9,28,19,15,-100,-100,-100,0,0,100,0.00,40.00,0,-999,0,0.00
2013-2-10,14,10,8,-100,-100,-100,0,0,100,0.00,40.00,0,-999,0,0.01
2013-2-11,20,17,11,-100,-100,-100,0,0,100,0.00,40.00,0,-999,0,0.00
2013-2-12,25,21,17,-100,-100,-100,0,0,100,0.00,40.00,0,-999,0,0.00
2013-2-13,22,21,20,-100,-100,-100,0,0,100,0.00,40.00,0,-999,0,0.00
2013-2-14,19,15,11,-100,-100,-100,0,0,100,0.00,40.00,0,-999,0,0.01
2013-2-15,27,26,26,-100,-100,-100,0,0,100,0.00,40.00,0,-999,0,0.00
2013-2-16,36,31,28,-100,-100,-100,0,0,100,0.00,40.00,0,-999,0,0.00
2013-2-17,24,21,18,-100,-100,-100,0,0,100,0.00,40.00,0,-999,0,0.00
2013-2-18,23,19,16,-100,-100,-100,0,0,100,0.00,40.00,0,-999,0,0.03
2013-2-19,23,19,16,-100,-100,-100,0,0,100,0.00,40.00,0,-999,0,0.00
2013-2-20,26,21,17,-100,-100,-100,0,0,100,0.00,40.00,0,-999,0,0.01
2013-2-21,19,14,10,-100,-100,-100,0,0,100,0.00,40.00,0,-999,0,0.00
2013-2-22,23,20,15,-100,-100,-100,0,0,100,0.00,40.00,0,-999,0,0.01
2013-2-24,21,21,21,-100,-100,-100,0,0,100,0.00,40.00,0,-999,0,0.00
2013-2-26,19,18,17,-100,-100,-100,0,0,100,0.00,40.00,0,-999,0,0.00
2013-2-27,29,22,14,-100,-100,-100,0,0,100,0.00,40.00,0,-999,0,0.00
2013-2-28,27,23,19,-100,-100,-100,0,0,100,0.00,40.00,0,-999,0,0.00
2013-3-1,35,32,26,-100,-100,-100,0,0,100,0.00,40.00,0,-999,0,0.00
2013-3-2,44,35,31,-100,-100,-100,0,0,100,0.00,40.00,0,-999,0,0.00
2013-3-3,32,22,9,-100,-100,-100,0,0,100,0.00,40.00,0,-999,0,0.01
2013-3-4,11,8,4,-100,-100,-100,0,0,100,0.00,40.00,0,-999,0,0.01
2013-3-5,26,17,9,-100,-100,-100,0,0,100,0.00,40.00,0,-999,0,0.00
2013-3-6,31,27,25,-100,-100,-100,0,0,100,0.00,40.00,0,-999,0,0.01
2013-3-7,31,26,20,-100,-100,-100,0,0,100,0.00,40.00,0,-999,0,0.01
2013-3-8,35,29,19,-100,-100,-100,0,0,100,0.00,40.00,0,-999,0,0.00
2013-3-9,33,25,17,-100,-100,-100,0,0,100,0.00,40.00,0,-999,0,0.00
2013-3-10,35,29,21,-100,-100,-100,0,0,100,0.00,40.00,0,-999,0,0.00
2013-3-11,27,22,13,-100,-100,-100,0,0,100,0.00,40.00,0,-999,0,0.00
2013-3-12,34,26,17,-100,-100,-100,0,0,100,0.00,40.00,0,-999,0,0.00
2013-3-13,44,36,32,-100,-100,-100,0,0,100,0.00,40.00,0,-999,0,0.00
2013-3-14,47,40,37,-100,-100,-100,0,0,100,0.00,40.00,0,-999,0,0.00
2013-3-15,40,36,31,-100,-100,-100,0,0,100,0.00,40.00,0,-999,0,0.00
2013-3-16,38,31,27,-100,-100,-100,0,0,100,0.00,40.00,0,-999,0,0.00
2013-3-17,29,19,14,-100,-100,-100,0,0,100,0.00,40.00,0,-999,0,0.02
2013-3-18,20,16,11,-100,-100,-100,0,0,100,0.00,40.00,0,-999,0,0.01
2013-3-19,30,20,13,-100,-100,-100,0,0,100,0.00,40.00,0,-999,0,0.01
2013-3-20,37,29,23,-100,-100,-100,0,0,100,0.00,40.00,0,-999,0,0.01
2013-3-21,23,19,13,-100,-100,-100,0,0,100,0.00,40.00,0,-999,0,0.01
2013-3-22,17,13,6,-100,-100,-100,0,0,100,0.00,40.00,0,-999,0,0.00
2013-3-23,19,11,1,-100,-100,-100,0,0,100,0.00,40.00,0,-999,0,0.00
2013-3-24,25,13,4,-100,-100,-100,0,0,100,0.00,40.00,0,-999,0,0.00
2013-3-25,34,22,11,-100,-100,-100,0,0,100,0.00,40.00,0,-999,0,0.00
2013-3-26,39,28,21,-100,-100,-100,0,0,100,0.00,40.00,0,-999,0,0.00
2013-3-27,45,34,25,-100,-100,-100,0,0,100,0.00,40.00,0,-999,0,0.00
2013-3-28,50,37,29,-100,-100,-100,0,0,100,0.00,40.00,0,-999,0,0.00
2013-3-29,41,34,31,-100,-100,-100,0,0,100,0.00,40.00,0,-999,0,0.00
2013-3-30,44,34,28,-100,-100,-100,0,0,100,0.00,40.00,0,-999,0,0.00
2013-3-31,42,35,28,-100,-100,-100,0,0,100,0.00,40.00,0,-999,0,0.00
2013-4-1,47,36,28,-100,-100,-100,0,0,100,0.00,40.00,0,-999,0,0.00
2013-4-2,50,42,34,-100,-100,-100,0,0,100,0.00,40.00,0,-999,0,0.00
2013-4-3,48,39,33,-100,-100,-100,0,0,100,0.00,40.00,0,-999,0,0.00
2013-4-4,49,42,36,-100,-100,-100,0,0,100,0.00,40.00,0,-999,0,0.00
2013-4-5,43,37,32,-100,-100,-100,0,0,100,0.00,40.00,0,-999,0,0.00
2013-4-6,41,33,29,-100,-100,-100,0,0,100,0.00,40.00,0,-999,0,0.01
2013-4-7,38,30,19,-100,-100,-100,0,0,100,0.00,40.00,0,-999,0,0.03
2013-4-8,23,16,12,-100,-100,-100,0,0,100,0.00,40.00,0,-999,0,0.02
2013-4-9,32,17,4,-100,-100,-100,0,0,100,0.00,40.00,0,-999,0,0.00
2013-4-10,40,27,17,-100,-100,-100,0,0,100,0.00,40.00,0,-999,0,0.00
2013-4-11,39,32,23,-100,-100,-100,0,0,100,0.00,40.00,0,-999,0,0.01
2013-4-12,38,29,21,-100,-100,-100,0,0,100,0.00,40.00,0,-999,0,0.00
2013-4-13,35,27,16,-100,-100,-100,0,0,100,0.00,40.00,0,-999,0,0.02
2013-4-14,23,16,9,-100,-100,-100,0,0,100,0.00,40.00,0,-999,0,0.01
2013-4-15,21,13,7,-100,-100,-100,0,0,100,0.00,40.00,0,-999,0,0.01
2013-4-16,21,13,8,-100,-100,-100,0,0,100,0.00,40.00,0,-999,0,0.00
2013-4-17,24,15,5,-100,-100,-100,0,0,100,0.00,40.00,0,-999,0,0.00
2013-4-18,37,25,16,-100,-100,-100,0,0,100,0.00,40.00,0,-999,0,0.00
2013-4-19,38,30,23,-100,-100,-100,0,0,100,0.00,40.00,0,-999,0,0.01
2013-4-20,37,32,28,-100,-100,-100,0,0,100,0.00,40.00,0,-999,0,0.01
2013-4-21,28,21,11,-100,-100,-100,0,0,100,0.00,40.00,0,-999,0,0.01
2013-4-22,29,17,10,-100,-100,-100,0,0,100,0.00,40.00,0,-999,0,0.01
2013-4-23,37,24,13,-100,-100,-100,0,0,100,0.00,40.00,0,-999,0,0.00
2013-4-24,41,38,35,-100,-100,-100,0,0,100,0.00,40.00,0,-999,0,0.01
2013-4-25,48,38,31,-100,-100,-100,0,0,100,0.00,40.00,0,-999,0,0.00
2013-4-26,53,42,32,-100,-100,-100,0,0,100,0.00,40.00,0,-999,0,0.00
2013-4-27,56,45,39,-100,-100,-100,0,0,100,0.00,40.00,0,-999,0,0.00
2013-4-28,47,38,34,-100,-100,-100,0,0,100,0.00,40.00,0,-999,0,0.01
2013-4-29,41,34,22,-100,-100,-100,0,0,100,0.00,40.00,0,-999,0,0.01
2013-4-30,26,22,14,-100,-100,-100,0,0,100,0.00,40.00,0,-999,0,0.01
2013-5-1,35,23,13,-100,-100,-100,0,0,100,0.00,40.00,0,-999,0,0.01
2013-5-2,48,37,22,-100,-100,-100,0,0,100,0.00,40.00,0,-999,0,0.00
2013-5-3,43,36,31,-100,-100,-100,0,0,100,0.00,40.00,0,-999,0,0.01
2013-5-4,40,33,31,-100,-100,-100,0,0,100,0.00,40.00,0,-999,0,0.02
2013-5-5,52,40,29,-100,-100,-100,0,0,100,0.00,40.00,0,-999,0,0.01
2013-5-6,60,47,36,-100,-100,-100,0,0,100,0.00,40.00,0,-999,0,0.00
2013-5-7,52,46,40,-100,-100,-100,0,0,100,0.00,40.00,0,-999,0,0.00
2013-5-8,61,47,37,-100,-100,-100,0,0,100,0.00,40.00,0,-999,0,0.00
2013-5-9,57,49,44,-100,-100,-100,0,0,100,0.00,40.00,0,-999,0,0.00
2013-5-10,54,46,39,-100,-100,-100,0,0,100,0.00,40.00,0,-999,0,0.00
2013-5-11,59,50,40,-100,-100,-100,0,0,100,0.00,40.00,0,-999,0,0.00
2013-5-12,63,55,48,-100,-100,-100,0,0,100,0.00,40.00,0,-999,0,0.00
2013-5-13,67,56,45,-100,-100,-100,0,0,100,0.00,40.00,0,-999,0,0.00
2013-5-14,55,45,37,-100,-100,-100,0,0,100,0.00,40.00,0,-999,0,0.00
2013-5-15,53,44,37,-100,-100,-100,0,0,100,0.00,40.00,0,-999,0,0.00
2013-5-16,50,40,36,-100,-100,-100,0,0,100,0.00,40.00,0,-999,0,0.00
2013-5-17,44,39,34,-100,-100,-100,0,0,100,0.00,40.00,0,-999,0,0.01
2013-5-18,47,40,36,-100,-100,-100,0,0,100,0.00,40.00,0,-999,0,0.02
2013-5-19,38,36,35,-100,-100,-100,0,0,100,0.00,40.00,0,-999,0,0.04
2013-5-20,44,39,37,-100,-100,-100,0,0,100,0.00,40.00,0,-999,0,0.02
2013-5-21,55,44,35,-100,-100,-100,0,0,100,0.00,40.00,0,-999,0,0.00
2013-5-22,41,38,34,-100,-100,-100,0,0,100,0.00,40.00,0,-999,0,0.01
2013-5-23,40,38,34,-100,-100,-100,0,0,100,0.00,40.00,0,-999,0,0.01
2013-5-24,41,36,29,-100,-100,-100,0,0,100,0.00,40.00,0,-999,0,0.01
2013-5-25,55,43,34,-100,-100,-100,0,0,100,0.00,40.00,0,-999,0,0.00
2013-5-26,54,44,36,-100,-100,-100,0,0,100,0.00,40.00,0,-999,0,0.01
2013-5-27,49,40,35,-100,-100,-100,0,0,100,0.00,40.00,0,-999,0,0.01
2013-5-28,47,40,36,-100,-100,-100,0,0,100,0.00,40.00,0,-999,0,0.01
2013-5-29,43,39,36,-100,-100,-100,0,0,100,0.00,40.00,0,-999,0,0.01
2013-5-30,38,36,33,-100,-100,-100,0,0,100,0.00,40.00,0,-999,0,0.01
2013-5-31,39,34,32,-100,-100,-100,0,0,100,0.00,40.00,0,-999,0,0.02
2013-6-1,53,43,33,-100,-100,-100,0,0,100,0.00,40.00,0,-999,0,0.01
2013-6-2,53,43,36,-100,-100,-100,0,0,100,0.00,40.00,0,-999,0,0.02
2013-6-3,36,34,32,-100,-100,-100,0,0,100,0.00,40.00,0,-999,0,0.04
2013-6-4,42,34,29,-100,-100,-100,0,0,100,0.00,40.00,0,-999,0,0.01
2013-6-5,57,45,32,-100,-100,-100,0,0,100,0.00,40.00,0,-999,0,0.00
2013-6-6,63,53,45,-100,-100,-100,0,0,100,0.00,40.00,0,-999,0,0.00
2013-6-7,60,52,45,-100,-100,-100,0,0,100,0.00,40.00,0,-999,0,0.00
2013-6-8,59,50,42,-100,-100,-100,0,0,100,0.00,40.00,0,-999,0,0.01
2013-6-9,67,55,45,-100,-100,-100,0,0,100,0.00,40.00,0,-999,0,0.00
2013-6-10,66,54,44,-100,-100,-100,0,0,100,0.00,40.00,0,-999,0,0.00
2013-6-11,60,51,44,-100,-100,-100,0,0,100,0.00,40.00,0,-999,0,0.01
2013-6-12,66,52,42,-100,-100,-100,0,0,100,0.00,40.00,0,-999,0,0.01
2013-6-13,56,45,37,-100,-100,-100,0,0,100,0.00,40.00,0,-999,0,0.02
2013-6-14,46,39,34,-100,-100,-100,0,0,100,0.00,40.00,0,-999,0,0.01
2013-6-15,60,48,36,-100,-100,-100,0,0,100,0.00,40.00,0,-999,0,0.00
2013-6-16,59,51,41,-100,-100,-100,0,0,100,0.00,40.00,0,-999,0,0.00
2013-6-17,67,55,43,-100,-100,-100,0,0,100,0.00,40.00,0,-999,0,0.00
2013-6-18,74,59,46,-100,-100,-100,0,0,100,0.00,40.00,0,-999,0,0.01
2013-6-19,63,50,37,-100,-100,-100,0,0,100,0.00,40.00,0,-999,0,0.02
2013-6-20,36,34,34,-100,-100,-100,0,0,100,0.00,40.00,0,-999,0,0.05
2013-6-24,66,56,46,-100,-100,-100,0,0,100,0.00,40.00,0,-999,0,0.00
2013-6-25,59,47,43,-100,-100,-100,0,0,100,0.00,40.00,0,-999,0,0.02
2013-6-26,61,50,44,-100,-100,-100,0,0,100,0.00,40.00,0,-999,0,0.01
2013-6-27,68,57,47,-100,-100,-100,0,0,100,0.00,40.00,0,-999,0,0.00
2013-6-28,73,63,53,-100,-100,-100,0,0,100,0.00,40.00,0,-999,0,0.00
2013-6-29,71,63,56,-100,-100,-100,0,0,100,0.00,40.00,0,-999,0,0.00
2013-6-30,72,64,54,-100,-100,-100,0,0,100,0.00,40.00,0,-999,0,0.00
2013-7-1,75,64,56,-100,-100,-100,0,0,100,0.00,40.00,0,-999,0,0.00
2013-7-2,81,68,59,-100,-100,-100,0,0,100,0.00,40.00,0,-999,0,0.00
2013-7-3,73,68,61,-100,-100,-100,0,0,100,0.00,40.00,0,-999,0,0.00
2013-7-4,71,63,56,-100,-100,-100,0,0,100,0.00,40.00,0,-999,0,0.00
2013-7-5,68,57,47,-100,-100,-100,0,0,100,0.00,40.00,0,-999,0,0.01
2013-7-6,65,53,45,-100,-100,-100,0,0,100,0.00,40.00,0,-999,0,0.01
2013-7-7,70,59,47,-100,-100,-100,0,0,100,0.00,40.00,0,-999,0,0.00
2013-7-8,68,55,50,-100,-100,-100,0,0,100,0.00,40.00,0,-999,0,0.01
2013-7-9,69,56,47,-100,-100,-100,0,0,100,0.00,40.00,0,-999,0,0.00
2013-7-10,77,66,54,-100,-100,-100,0,0,100,0.00,40.00,0,-999,0,0.00
2013-7-11,74,62,47,-100,-100,-100,0,0,100,0.00,40.00,0,-999,0,0.00
2013-7-12,66,55,47,-100,-100,-100,0,0,100,0.00,40.00,0,-999,0,0.01
2013-7-13,66,58,47,-100,-100,-100,0,0,100,0.00,40.00,0,-999,0,0.01
2013-7-14,69,57,45,-100,-100,-100,0,0,100,0.00,40.00,0,-999,0,0.00
2013-7-15,75,61,54,-100,-100,-100,0,0,100,0.00,40.00,0,-999,0,0.00
2013-7-16,67,53,44,-100,-100,-100,0,0,100,0.00,40.00,0,-999,0,0.00
2013-7-17,74,58,50,-100,-100,-100,0,0,100,0.00,40.00,0,-999,0,0.03
2013-7-18,68,60,52,-100,-100,-100,0,0,100,0.00,40.00,0,-999,0,0.01
2013-7-19,69,60,54,-100,-100,-100,0,0,100,0.00,40.00,0,-999,0,0.00
2013-7-20,70,62,54,-100,-100,-100,0,0,100,0.00,40.00,0,-999,0,0.00
2013-7-21,74,62,54,-100,-100,-100,0,0,100,0.00,40.00,0,-999,0,0.00
2013-7-22,70,62,56,-100,-100,-100,0,0,100,0.00,40.00,0,-999,0,0.00
2013-7-23,72,62,55,-100,-100,-100,0,0,100,0.00,40.00,0,-999,0,0.00
2013-7-24,75,65,53,-100,-100,-100,0,0,100,0.00,40.00,0,-999,0,0.00
2013-7-25,73,60,49,-100,-100,-100,0,0,100,0.00,40.00,0,-999,0,0.00
2013-7-26,74,62,51,-100,-100,-100,0,0,100,0.00,40.00,0,-999,0,0.00
2013-7-27,71,63,56,-100,-100,-100,0,0,100,0.00,40.00,0,-999,0,0.00
2013-7-28,63,55,50,-100,-100,-100,0,0,100,0.00,40.00,0,-999,0,0.00
2013-7-29,59,49,41,-100,-100,-100,0,0,100,0.00,40.00,0,-999,0,0.01
2013-7-30,60,52,44,-100,-100,-100,0,0,100,0.00,40.00,0,-999,0,0.00
2013-7-31,69,60,48,-100,-100,-100,0,0,100,0.00,40.00,0,-999,0,0.00
2013-8-1,63,53,47,-100,-100,-100,0,0,100,0.00,40.00,0,-999,0,0.02
2013-8-2,59,50,44,-100,-100,-100,0,0,100,0.00,40.00,0,-999,0,0.02
2013-8-3,62,52,44,-100,-100,-100,0,0,100,0.00,40.00,0,-999,0,0.00
2013-8-4,65,56,47,-100,-100,-100,0,0,100,0.00,40.00,0,-999,0,0.00
2013-8-5,67,56,49,-100,-100,-100,0,0,100,0.00,40.00,0,-999,0,0.00
2013-8-6,65,55,47,-100,-100,-100,0,0,100,0.00,40.00,0,-999,0,0.00
2013-8-7,69,58,50,-100,-100,-100,0,0,100,0.00,40.00,0,-999,0,0.00
2013-8-8,66,57,50,-100,-100,-100,0,0,100,0.00,40.00,0,-999,0,0.00
2013-8-9,61,52,47,-100,-100,-100,0,0,100,0.00,40.00,0,-999,0,0.01
2013-8-10,67,58,50,-100,-100,-100,0,0,100,0.00,40.00,0,-999,0,0.01
2013-8-11,70,58,53,-100,-100,-100,0,0,100,0.00,40.00,0,-999,0,0.00
2013-8-12,72,59,52,-100,-100,-100,0,0,100,0.00,40.00,0,-999,0,0.00
2013-8-13,71,58,46,-100,-100,-100,0,0,100,0.00,40.00,0,-999,0,0.01
2013-8-14,68,56,47,-100,-100,-100,0,0,100,0.00,40.00,0,-999,0,0.01
2013-8-15,76,65,55,-100,-100,-100,0,0,100,0.00,40.00,0,-999,0,0.00
2013-8-16,81,70,59,-100,-100,-100,0,0,100,0.00,40.00,0,-999,0,0.00
2013-8-17,73,66,58,-100,-100,-100,0,0,100,0.00,40.00,0,-999,0,0.00
2013-8-18,73,65,55,-100,-100,-100,0,0,100,0.00,40.00,0,-999,0,0.00
2013-8-19,74,63,55,-100,-100,-100,0,0,100,0.00,40.00,0,-999,0,0.00
2013-8-20,73,62,55,-100,-100,-100,0,0,100,0.00,40.00,0,-999,0,0.00
2013-8-21,70,58,49,-100,-100,-100,0,0,100,0.00,40.00,0,-999,0,0.00
2013-8-22,75,63,55,-100,-100,-100,0,0,100,0.00,40.00,0,-999,0,0.00
2013-8-23,71,59,53,-100,-100,-100,0,0,100,0.00,40.00,0,-999,0,0.00
2013-8-24,67,58,50,-100,-100,-100,0,0,100,0.00,40.00,0,-999,0,0.00
2013-8-25,73,60,50,-100,-100,-100,0,0,100,0.00,40.00,0,-999,0,0.00
2013-8-26,71,58,50,-100,-100,-100,0,0,100,0.00,40.00,0,-999,0,0.01
2013-8-27,70,58,52,-100,-100,-100,0,0,100,0.00,40.00,0,-999,0,0.01
2013-8-28,72,65,54,-100,-100,-100,0,0,100,0.00,40.00,0,-999,0,0.00
2013-8-29,74,62,54,-100,-100,-100,0,0,100,0.00,40.00,0,-999,0,0.00
2013-8-30,72,63,55,-100,-100,-100,0,0,100,0.00,40.00,0,-999,0,0.00
2013-8-31,66,56,48,-100,-100,-100,0,0,100,0.00,40.00,0,-999,0,0.00
2013-9-1,74,62,52,-100,-100,-100,0,0,100,0.00,40.00,0,-999,0,0.00
2013-9-2,76,66,59,-100,-100,-100,0,0,100,0.00,40.00,0,-999,0,0.00
2013-9-3,74,61,55,-100,-100,-100,0,0,100,0.00,40.00,0,-999,0,0.00
2013-9-4,72,62,53,-100,-100,-100,0,0,100,0.00,40.00,0,-999,0,0.00
2013-9-5,74,62,55,-100,-100,-100,0,0,100,0.00,40.00,0,-999,0,0.00
2013-9-6,74,60,50,-100,-100,-100,0,0,100,0.00,40.00,0,-999,0,0.01
2013-9-7,66,58,47,-100,-100,-100,0,0,100,0.00,40.00,0,-999,0,0.01
2013-9-8,63,51,42,-100,-100,-100,0,0,100,0.00,40.00,0,-999,0,0.01
2013-9-9,54,46,41,-100,-100,-100,0,0,100,0.00,40.00,0,-999,0,0.01
2013-9-10,64,55,46,-100,-100,-100,0,0,100,0.00,40.00,0,-999,0,0.00
2013-9-11,65,58,50,-100,-100,-100,0,0,100,0.00,40.00,0,-999,0,0.00
2013-9-12,65,54,45,-100,-100,-100,0,0,100,0.00,40.00,0,-999,0,0.00
2013-9-13,66,57,51,-100,-100,-100,0,0,100,0.00,40.00,0,-999,0,0.00
2013-9-14,57,52,47,-100,-100,-100,0,0,100,0.00,40.00,0,-999,0,0.00
2013-9-15,63,52,44,-100,-100,-100,0,0,100,0.00,40.00,0,-999,0,0.00
2013-9-16,63,55,50,-100,-100,-100,0,0,100,0.00,40.00,0,-999,0,0.00
2013-9-17,52,48,43,-100,-100,-100,0,0,100,0.00,40.00,0,-999,0,0.03
2013-9-18,43,40,34,-100,-100,-100,0,0,100,0.00,40.00,0,-999,0,0.01
2013-9-19,46,39,34,-100,-100,-100,0,0,100,0.00,40.00,0,-999,0,0.01
2013-9-20,57,48,39,-100,-100,-100,0,0,100,0.00,40.00,0,-999,0,0.00
2013-9-21,62,54,48,-100,-100,-100,0,0,100,0.00,40.00,0,-999,0,0.00
2013-9-22,58,48,36,-100,-100,-100,0,0,100,0.00,40.00,0,-999,0,0.00
2013-9-23,46,39,35,-100,-100,-100,0,0,100,0.00,40.00,0,-999,0,0.01
2013-9-24,42,39,34,-100,-100,-100,0,0,100,0.00,40.00,0,-999,0,0.02
2013-9-25,35,33,31,-100,-100,-100,0,0,100,0.00,40.00,0,-999,0,0.04
2013-9-26,31,29,26,-100,-100,-100,0,0,100,0.00,40.00,0,-999,0,0.05
2013-9-27,34,28,23,-100,-100,-100,0,0,100,0.00,40.00,0,-999,0,0.01
2013-9-28,40,35,30,-100,-100,-100,0,0,100,0.00,40.00,0,-999,0,0.00
2013-9-30,38,34,31,-100,-100,-100,0,0,100,0.00,40.00,0,-999,0,0.01
2013-10-1,37,34,32,-100,-100,-100,0,0,100,0.00,40.00,0,-999,0,0.00
2013-10-2,40,34,26,-100,-100,-100,0,0,100,0.00,40.00,0,-999,0,0.00
2013-10-3,29,25,23,-100,-100,-100,0,0,100,0.00,40.00,0,-999,0,0.00
2013-10-4,33,26,19,-100,-100,-100,0,0,100,0.00,40.00,0,-999,0,0.00
2013-10-5,41,34,27,-100,-100,-100,0,0,100,0.00,40.00,0,-999,0,0.00
2013-10-6,53,45,39,-100,-100,-100,0,0,100,0.00,40.00,0,-999,0,0.00
2013-10-7,51,44,38,-100,-100,-100,0,0,100,0.00,40.00,0,-999,0,0.00
2013-10-8,36,33,29,-100,-100,-100,0,0,100,0.00,40.00,0,-999,0,0.00
2013-10-9,43,34,26,-100,-100,-100,0,0,100,0.00,40.00,0,-999,0,0.00
2013-10-10,46,40,35,-100,-100,-100,0,0,100,0.00,40.00,0,-999,0,0.00
2013-10-11,34,30,27,-100,-100,-100,0,0,100,0.00,40.00,0,-999,0,0.00
2013-10-12,39,30,25,-100,-100,-100,0,0,100,0.00,40.00,0,-999,0,0.00
2013-10-13,39,32,27,-100,-100,-100,0,0,100,0.00,40.00,0,-999,0,0.00
2013-10-14,32,28,25,-100,-100,-100,0,0,100,0.00,40.00,0,-999,0,0.01
2013-10-15,41,31,23,-100,-100,-100,0,0,100,0.00,40.00,0,-999,0,0.00
2013-10-16,33,30,25,-100,-100,-100,0,0,100,0.00,40.00,0,-999,0,0.00
2013-10-17,30,27,25,-100,-100,-100,0,0,100,0.00,40.00,0,-999,0,0.01
2013-10-18,36,32,24,-100,-100,-100,0,0,100,0.00,40.00,0,-999,0,0.00
2013-10-19,41,35,31,-100,-100,-100,0,0,100,0.00,40.00,0,-999,0,0.00
2013-10-20,38,35,30,-100,-100,-100,0,0,100,0.00,40.00,0,-999,0,0.00
2013-10-21,40,37,32,-100,-100,-100,0,0,100,0.00,40.00,0,-999,0,0.00
2013-10-22,49,43,38,-100,-100,-100,0,0,100,0.00,40.00,0,-999,0,0.00
2013-10-23,40,38,37,-100,-100,-100,0,0,100,0.00,40.00,0,-999,0,0.00
2013-10-24,52,46,37,-100,-100,-100,0,0,100,0.00,40.00,0,-999,0,0.00
2013-10-25,45,44,43,-100,-100,-100,0,0,100,0.00,40.00,0,-999,0,0.00
2013-10-26,46,43,41,-100,-100,-100,0,0,100,0.00,40.00,0,-999,0,0.00
2013-10-27,44,33,23,-100,-100,-100,0,0,100,0.00,40.00,0,-999,0,0.00
2013-11-2,38,34,29,-100,-100,-100,0,0,100,0.00,40.00,0,-999,0,0.01
2013-11-3,27,22,19,-100,-100,-100,0,0,100,0.00,40.00,0,-999,0,0.01
2013-11-4,20,17,15,-100,-100,-100,0,0,100,0.00,40.00,0,-999,0,0.01
2013-11-5,23,18,12,-100,-100,-100,0,0,100,0.00,40.00,0,-999,0,0.01
2013-11-6,24,24,23,-100,-100,-100,0,0,100,0.00,40.00,0,-999,0,0.00
2013-11-7,30,28,25,-100,-100,-100,0,0,100,0.00,40.00,0,-999,0,0.00
2013-11-8,28,25,23,-100,-100,-100,0,0,100,0.00,40.00,0,-999,0,0.02
2013-11-12,43,40,35,-100,-100,-100,0,0,100,0.00,40.00,0,-999,0,0.00
2013-11-13,40,35,32,-100,-100,-100,0,0,100,0.00,40.00,0,-999,0,0.00
2013-11-14,26,25,24,-100,-100,-100,0,0,100,0.00,40.00,0,-999,0,0.00
2013-11-15,24,24,24,-100,-100,-100,0,0,100,0.00,40.00,0,-999,0,0.00
2013-11-16,23,22,21,-100,-100,-100,0,0,100,0.00,40.00,0,-999,0,0.06
2013-11-17,22,20,18,-100,-100,-100,0,0,100,0.00,40.00,0,-999,0,0.00
2013-11-18,34,26,22,-100,-100,-100,0,0,100,0.00,40.00,0,-999,0,0.00
2013-11-19,38,34,32,-100,-100,-100,0,0,100,0.00,40.00,0,-999,0,0.00
2013-11-20,32,22,2,-100,-100,-100,0,0,100,0.00,40.00,0,-999,0,0.01
2013-11-21,15,9,4,-100,-100,-100,0,0,100,0.00,40.00,0,-999,0,0.00
2013-11-22,19,17,15,-100,-100,-100,0,0,100,0.00,40.00,0,-999,0,0.00
2013-11-23,35,32,28,-100,-100,-100,0,0,100,0.00,40.00,0,-999,0,0.00
2013-11-24,37,33,32,-100,-100,-100,0,0,100,0.00,40.00,0,-999,0,0.00
2013-11-25,32,28,26,-100,-100,-100,0,0,100,0.00,40.00,0,-999,0,0.00
2013-11-26,37,34,32,-100,-100,-100,0,0,100,0.00,40.00,0,-999,0,0.00
2013-11-27,39,34,31,-100,-100,-100,0,0,100,0.00,40.00,0,-999,0,0.00
2013-11-28,40,34,29,-100,-100,-100,0,0,100,0.00,40.00,0,-999,0,0.00
2013-11-29,38,33,30,-100,-100,-100,0,0,100,0.00,40.00,0,-999,0,0.00
2013-11-30,31,30,28,-100,-100,-100,0,0,100,0.00,40.00,0,-999,0,0.00
2013-12-1,30,29,27,-100,-100,-100,0,0,100,0.00,40.00,0,-999,0,0.00
2013-12-2,30,17,2,-100,-100,-100,0,0,100,0.00,40.00,0,-999,0,0.02
2013-12-3,-10,-11,-11,-100,-100,-100,0,0,100,0.00,40.00,0,-999,0,0.00
2013-12-4,-10,-13,-18,-100,-100,-100,0,0,100,0.00,40.00,0,-999,0,0.00
2013-12-5,-6,-12,-16,-100,-100,-100,0,0,100,0.00,40.00,0,-999,0,0.00
2013-12-6,-18,-23,-27,-100,-100,-100,0,0,100,0.00,40.00,0,-999,0,0.00
2013-12-7,-3,-4,-5,-100,-100,-100,0,0,100,0.00,40.00,0,-999,0,0.00
2013-12-8,-8,-10,-12,-100,-100,-100,0,0,100,0.00,40.00,0,-999,0,0.00
2013-12-9,11,4,-10,-100,-100,-100,0,0,100,0.00,40.00,0,-999,0,0.01
2013-12-10,13,11,10,-100,-100,-100,0,0,100,0.00,40.00,0,-999,0,0.02
2013-12-11,18,14,11,-100,-100,-100,0,0,100,0.00,40.00,0,-999,0,0.01
2013-12-12,30,27,23,-100,-100,-100,0,0,100,0.00,40.00,0,-999,0,0.01
2013-12-13,23,23,22,-100,-100,-100,0,0,100,0.00,40.00,0,-999,0,0.00
2013-12-14,30,26,24,-100,-100,-100,0,0,100,0.00,40.00,0,-999,0,0.00
2013-12-15,32,31,30,-100,-100,-100,0,0,100,0.00,40.00,0,-999,0,0.00
2013-12-16,30,29,27,-100,-100,-100,0,0,100,0.00,40.00,0,-999,0,0.00
2013-12-17,37,33,28,-100,-100,-100,0,0,100,0.00,40.00,0,-999,0,0.00
2013-12-18,34,31,28,-100,-100,-100,0,0,100,0.00,40.00,0,-999,0,0.00
2013-12-19,16,8,4,-100,-100,-100,0,0,100,0.00,40.00,0,-999,0,0.01
2013-12-20,13,10,9,-100,-100,-100,0,0,100,0.00,40.00,0,-999,0,0.00
2013-12-21,17,15,13,-100,-100,-100,0,0,100,0.00,40.00,0,-999,0,0.02
2013-12-22,20,19,17,-100,-100,-100,0,0,100,0.00,40.00,0,-999,0,0.02
2013-12-23,30,26,20,-100,-100,-100,0,0,100,0.00,40.00,0,-999,0,0.01
2013-12-24,20,18,16,-100,-100,-100,0,0,100,0.00,40.00,0,-999,0,0.01
2013-12-25,29,23,17,-100,-100,-100,0,0,100,0.00,40.00,0,-999,0,0.00
2013-12-26,35,31,28,-100,-100,-100,0,0,100,0.00,40.00,0,-999,0,0.00
2013-12-27,37,36,32,-100,-100,-100,0,0,100,0.00,40.00,0,-999,0,0.00
2013-12-28,19,13,10,-100,-100,-100,0,0,100,0.00,40.00,0,-999,0,0.00
2013-12-29,20,18,15,-100,-100,-100,0,0,100,0.00,40.00,0,-999,0,0.00
2013-12-30,27,27,27,-100,-100,-100,0,0,100,0.00,40.00,0,-999,0,0.00
2013-12-31,29,26,23,-100,-100,-100,0,0,100,0.00,40.00,0,-999,0,0.03
2014-1-1,23,21,20,-100,-100,-100,0,0,100,0.00,40.00,0,-999,0,0.02
2014-1-2,29,26,22,-100,-100,-100,0,0,100,0.00,40.00,0,-999,0,0.00